Regional Weather Roundup
Issued by NWS Goodland, KS

Home | Current Version | Previous Version | Graphics & Text | Print | Product List | Glossary On
Versions: 1 2 3 4 5 6 7 8 9 10 11 12 13 14 15 16 17 18 19 20 21 22 23 24 25 26 27 28 29 30 31 32 33 34 35 36 37 38 39 40 41 42 43 44 45 46 47 48 49 50
000
ASUS43 KGLD 290359
RWRGLD

GOODLAND FORECAST AREA HOURLY WEATHER ROUNDUP
NATIONAL WEATHER SERVICE GOODLAND KS
1000 PM MDT FRI JUL 28 2017

...OFFICIAL OBSERVATIONS...

CITY           SKY/WX    TMP DP  RH WIND       PRES   REMARKS
GOODLAND KS    LGT RAIN  66  61  84 S18       30.10R
HILL CITY KS   CLOUDY    76  60  57 E7        30.03S
IMPERIAL NEB   CLOUDY    71  66  84 S6        30.06R
MCCOOK NEB     CLOUDY    76  61  59 E12       30.04R
AKRON CO       CLOUDY    70  56  61 S12       30.11F
BURLINGTON CO  LGT RAIN  66  61  84 SW10      30.18R
LIMON CO       CLOUDY    62  61  96 SE12      30.22S
$$

...UNOFFICIAL OBSERVATIONS...

CITY           SKY/WX    TMP DP  RH WIND       PRES   REMARKS
LENORA KS        N/A     75  32  20 MISG        N/A
NORTON KS      MOCLDY    75  55  50 E9        30.04R
TRENTON NEB      N/A     75  32  20 S8          N/A
KIT CARSON CO    N/A     65  61  86 MISG        N/A
YUMA CO        FAIR      64  54  68 S6        30.11R
$$



USA.gov is the U.S. government's official web portal to all federal, state and local government web resources and services.